• In Hungary
  • List of Countries
  • For 7 days
  • Water Temperature
  • Satellite Maps
  • Weather Map
  • News
  • Weather Widgets
  • user-avatar
    Login

    Hourly Weather Horodylets'

    Today, 12 December, Tuesday

    Time Temperature Precipitation Wind Pressure Humidity
    00:00 +3°C° 0 mm 6 mps 735 mmHg 82%
    01:00 +4°C° 0 mm 6 mps 735 mmHg 82%
    02:00 +4°C° 0 mm 6 mps 735 mmHg 81%
    03:00 +5°C° 0 mm 6 mps 735 mmHg 79%
    04:00 +5°C° 0 mm 6 mps 735 mmHg 78%
    05:00 +5°C° 0 mm 7 mps 735 mmHg 76%
    06:00 +5°C° 0 mm 7 mps 735 mmHg 77%
    07:00 +5°C° 0 mm 6 mps 735 mmHg 78%
    08:00 +5°C° 0 mm 6 mps 735 mmHg 79%
    09:00 +6°C° 0 mm 7 mps 736 mmHg 76%
    10:00 +8°C° 0 mm 7 mps 736 mmHg 74%
    11:00 +8°C° 0 mm 7 mps 736 mmHg 71%
    12:00 +9°C° 0 mm 8 mps 737 mmHg 70%
    13:00 +10°C° 0 mm 8 mps 737 mmHg 68%
    14:00 +11°C° 0 mm 8 mps 737 mmHg 66%
    15:00 +10°C° 0 mm 8 mps 738 mmHg 69%
    16:00 +9°C° 0 mm 8 mps 739 mmHg 72%
    17:00 +9°C° 0 mm 7 mps 739 mmHg 75%
    18:00 +8°C° 0 mm 7 mps 740 mmHg 77%
    19:00 +8°C° 0 mm 6 mps 740 mmHg 78%
    20:00 +7°C° 0 mm 5 mps 741 mmHg 79%
    21:00 +6°C° 0 mm 5 mps 742 mmHg 77%
    22:00 +6°C° 0 mm 4 mps 742 mmHg 75%
    23:00 +5°C° 0 mm 4 mps 743 mmHg 73%

    Tomorrow, 13 December, Wednesday

    Time Temperature Precipitation Wind Pressure Humidity
    00:00 +5°C° 0.2 mm 4 mps 744 mmHg 72%
    01:00 +4°C° 0.2 mm 4 mps 744 mmHg 70%
    02:00 +4°C° 0.2 mm 4 mps 745 mmHg 68%
    03:00 +3°C° 0.3 mm 3 mps 745 mmHg 69%
    04:00 +3°C° 0.3 mm 3 mps 745 mmHg 70%
    05:00 +3°C° 0.3 mm 3 mps 746 mmHg 71%
    06:00 +2°C° 0.2 mm 3 mps 746 mmHg 72%
    07:00 +2°C° 0.2 mm 3 mps 747 mmHg 73%
    08:00 +2°C° 0.2 mm 3 mps 747 mmHg 74%
    09:00 +2°C° 0 mm 3 mps 747 mmHg 74%
    10:00 +2°C° 0 mm 3 mps 747 mmHg 75%
    11:00 +2°C° 0 mm 3 mps 748 mmHg 75%
    12:00 +2°C° 0 mm 3 mps 748 mmHg 74%
    13:00 +2°C° 0 mm 3 mps 747 mmHg 73%
    14:00 +2°C° 0 mm 3 mps 747 mmHg 72%
    15:00 +2°C° 0 mm 2 mps 747 mmHg 75%
    16:00 +1°C° 0 mm 2 mps 747 mmHg 78%
    17:00 +2°C° 0 mm 1 mps 746 mmHg 81%
    18:00 +1°C° 0 mm 1 mps 746 mmHg 82%
    19:00 +1°C° 0 mm 1 mps 746 mmHg 83%
    20:00 +1°C° 0 mm 1 mps 746 mmHg 84%
    21:00 -1°C° 0 mm 2 mps 746 mmHg 85%
    22:00 -1°C° 0 mm 2 mps 745 mmHg 85%
    23:00 -1°C° 0 mm 2 mps 745 mmHg 86%

    Day after tomorrow, 14 December, Thursday

    Time Temperature Precipitation Wind Pressure Humidity
    00:00 -1°C° 0 mm 2 mps 744 mmHg 87%
    01:00 -1°C° 0 mm 3 mps 744 mmHg 87%
    02:00 -1°C° 0 mm 3 mps 743 mmHg 88%
    03:00 -1°C° 0 mm 3 mps 742 mmHg 89%
    04:00 -2°C° 0 mm 4 mps 742 mmHg 90%
    05:00 -2°C° 0 mm 4 mps 741 mmHg 91%
    06:00 -2°C° 0 mm 5 mps 741 mmHg 89%
    07:00 -2°C° 0 mm 5 mps 740 mmHg 87%
    08:00 -2°C° 0 mm 5 mps 740 mmHg 85%
    09:00 -2°C° 0 mm 6 mps 739 mmHg 80%
    10:00 -1°C° 0 mm 6 mps 739 mmHg 74%
    11:00 0°C° 0 mm 7 mps 738 mmHg 68%
    12:00 +2°C° 0 mm 7 mps 738 mmHg 67%
    13:00 +2°C° 0 mm 7 mps 738 mmHg 67%
    14:00 +3°C° 0 mm 7 mps 737 mmHg 66%
    15:00 +2°C° 0 mm 7 mps 738 mmHg 69%
    16:00 +2°C° 0 mm 6 mps 738 mmHg 72%
    17:00 +1°C° 0 mm 6 mps 738 mmHg 75%
    18:00 +1°C° 0 mm 6 mps 738 mmHg 77%
    19:00 +1°C° 0 mm 5 mps 738 mmHg 79%
    20:00 +1°C° 0 mm 4 mps 738 mmHg 81%
    21:00 +1°C° 0 mm 4 mps 738 mmHg 83%
    22:00 +1°C° 0 mm 3 mps 738 mmHg 85%
    23:00 +1°C° 0 mm 3 mps 738 mmHg 87%

    15 December, Friday

    Time Temperature Precipitation Wind Pressure Humidity
    00:00 +1°C° 0 mm 3 mps 738 mmHg 89%
    01:00 +1°C° 0 mm 3 mps 737 mmHg 90%
    02:00 +2°C° 0 mm 2 mps 737 mmHg 92%
    03:00 0°C° 0 mm 3 mps 736 mmHg 92%
    04:00 0°C° 0 mm 3 mps 736 mmHg 92%
    05:00 0°C° 0 mm 3 mps 735 mmHg 93%
    06:00 0°C° 0.1 mm 3 mps 735 mmHg 93%
    07:00 +1°C° 0.1 mm 3 mps 735 mmHg 93%
    08:00 +1°C° 0.1 mm 3 mps 735 mmHg 93%
    09:00 +1°C° 0 mm 3 mps 735 mmHg 91%
    10:00 +1°C° 0 mm 4 mps 734 mmHg 88%
    11:00 +1°C° 0 mm 4 mps 734 mmHg 86%
    12:00 +3°C° 0 mm 4 mps 734 mmHg 84%
    13:00 +3°C° 0 mm 4 mps 734 mmHg 82%
    14:00 +4°C° 0 mm 4 mps 735 mmHg 79%
    15:00 +3°C° 0 mm 4 mps 735 mmHg 80%
    16:00 +2°C° 0 mm 3 mps 736 mmHg 81%
    17:00 +1°C° 0 mm 3 mps 736 mmHg 82%
    18:00 +1°C° 0 mm 3 mps 736 mmHg 82%
    19:00 0°C° 0 mm 3 mps 737 mmHg 82%
    20:00 +1°C° 0 mm 2 mps 737 mmHg 82%
    21:00 +1°C° 0 mm 2 mps 738 mmHg 82%
    22:00 +1°C° 0 mm 2 mps 738 mmHg 82%
    23:00 -1°C° 0 mm 2 mps 738 mmHg 82%

    16 December, Saturday

    Time Temperature Precipitation Wind Pressure Humidity
    00:00 -1°C° 0 mm 2 mps 738 mmHg 81%
    01:00 +1°C° 0 mm 2 mps 738 mmHg 79%
    02:00 +2°C° 0 mm 1 mps 737 mmHg 78%
    03:00 +1°C° 0 mm 2 mps 737 mmHg 78%
    04:00 +1°C° 0 mm 2 mps 737 mmHg 79%
    05:00 +1°C° 0 mm 2 mps 736 mmHg 79%
    06:00 +1°C° 0.2 mm 2 mps 736 mmHg 80%
    07:00 +1°C° 0.2 mm 2 mps 736 mmHg 80%
    08:00 +1°C° 0.2 mm 2 mps 736 mmHg 80%
    09:00 +1°C° 0.1 mm 2 mps 736 mmHg 80%
    10:00 +2°C° 0.1 mm 1 mps 736 mmHg 79%
    11:00 +3°C° 0.1 mm 1 mps 736 mmHg 78%
    12:00 +3°C° 0.2 mm 1 mps 736 mmHg 79%
    13:00 +3°C° 0.2 mm 1 mps 736 mmHg 79%
    14:00 +3°C° 0.2 mm 1 mps 737 mmHg 80%
    15:00 +2°C° 0.1 mm 1 mps 737 mmHg 80%
    16:00 +2°C° 0.1 mm 1 mps 737 mmHg 81%
    17:00 +1°C° 0.1 mm 2 mps 738 mmHg 82%
    18:00 -1°C° 0 mm 2 mps 738 mmHg 82%
    19:00 -1°C° 0 mm 2 mps 739 mmHg 83%
    20:00 -1°C° 0 mm 2 mps 739 mmHg 83%
    21:00 -1°C° 0 mm 3 mps 739 mmHg 85%
    22:00 -1°C° 0 mm 3 mps 740 mmHg 86%
    23:00 -1°C° 0 mm 3 mps 740 mmHg 88%

    17 December, Sunday

    Time Temperature Precipitation Wind Pressure Humidity
    00:00 -1°C° 0 mm 3 mps 741 mmHg 88%
    01:00 -1°C° 0 mm 3 mps 741 mmHg 89%
    02:00 -2°C° 0 mm 4 mps 741 mmHg 90%
    03:00 -2°C° 0 mm 4 mps 742 mmHg 90%
    04:00 -2°C° 0 mm 4 mps 742 mmHg 89%
    05:00 -1°C° 0 mm 4 mps 743 mmHg 88%
    06:00 -2°C° 0 mm 4 mps 743 mmHg 87%
    07:00 -1°C° 0 mm 3 mps 744 mmHg 87%
    08:00 -2°C° 0 mm 3 mps 744 mmHg 86%
    09:00 -1°C° 0 mm 3 mps 745 mmHg 82%
    10:00 -1°C° 0 mm 3 mps 745 mmHg 78%
    11:00 0°C° 0 mm 3 mps 746 mmHg 73%
    12:00 0°C° 0 mm 3 mps 746 mmHg 72%
    13:00 +1°C° 0 mm 3 mps 746 mmHg 71%
    14:00 +1°C° 0 mm 3 mps 746 mmHg 70%
    15:00 0°C° 0 mm 3 mps 746 mmHg 74%
    16:00 -1°C° 0 mm 2 mps 746 mmHg 79%
    17:00 -1°C° 0 mm 2 mps 747 mmHg 83%
    18:00 -2°C° 0 mm 2 mps 747 mmHg 85%
    19:00 -2°C° 0 mm 2 mps 747 mmHg 86%
    20:00 -2°C° 0 mm 3 mps 747 mmHg 88%
    21:00 -2°C° 0 mm 3 mps 748 mmHg 88%
    22:00 -2°C° 0 mm 2 mps 748 mmHg 89%
    23:00 -2°C° 0 mm 2 mps 748 mmHg 89%
    Show more